{"data":{"norad_id":66096,"intl_designator":"2025-236L","name":"STARLINK-34386","alt_names":[],"object_type":"PAYLOAD","status":"ACTIVE","operator":null,"country":"US","launch_date":"2025-10-19","launch_site_code":"AFWTR","launch_vehicle":null,"mission":null,"orbit_class":"UNKNOWN","rcs_meters":null,"size_class":null,"mass_kg":null,"dimensions":null,"purposes":["comms"],"wikipedia_slug":null,"has_3d_model":false,"image_url":null,"decayed_at":null,"tle_current":{"epoch":"2026-09-20T05:56:33.081504Z","epoch_age_seconds":124849,"freshness":"FRESH","line1":"1 66096U 25236L   26263.24760511 -.00005288  00000+0 -14539-3 0  9999","line2":"2 66096  53.1583 278.6557 0001369  66.2212 293.8934 15.34415878 52755","mean_motion":15.34415878,"eccentricity":0.0001369,"inclination_deg":53.1583,"raan_deg":278.6557,"arg_perigee_deg":66.2212,"mean_anomaly_deg":293.8934,"bstar":-0.00014539,"rev_number":5275,"period_min":93.846786953022,"perigee_km":461.71954328367,"apogee_km":463.59255242017,"semimajor_km":6840.7930478519,"source":"CELESTRAK","updated_at":"2026-09-21T09:00:35.802178Z"}}}